NSS-10

Last updated on Thu Nov 21 2024 00:02:40 GMT+0000 (Coordinated Universal Time)

1 28526U 05003A 24324.64455557 -.00000250 00000+0 00000+0 0 9993 2 28526 5.0094 77.3490 0002999 167.4720 8.9338 1.00270361 47393
UTC large
Height (km)
Speed (km/s)
/
Latitude / Longitude
Inclination (degrees)
Orbital Period (minutes)
Azimuth
Elevation
Range (km)
Doppler Factor

Next 0 passes for location: London (51.5072 / 0.1276)

Sorry there are no passes over London.